Location: ????
(55.2778°N, 39.2433°E)
Time: 19:17:19
(UTC+00:00)

NOAA 11 - Pass Details

Date: 14 April 2024
Orbit: 833 x 848 km, 98.5° (Epoch: 18 May)

Event Time Altitude Azimuth Distance (km) Brightness Sun altitude
Rises 01:17:15 0° 15° (NNE) 3,398 8.1 -9.1°
Reaches altitude 10° 01:19:37 10° 16° (NNE) 2,461 7.4 -8.8°
Maximum altitude 01:25:06 88° 286° (WNW) 846 4.2 -8.1°
Drops below altitude 10° 01:30:33 10° 199° (SSW) 2,452 6.2 -7.4°
Sets 01:32:54 0° 199° (SSW) 3,385 6.9 -7.1°
